Station Historical Data
Daily Summary for June 23, 2012 Units:  English    Metric   Both
« Previous Day
Next Day »
Daily Weekly Monthly Yearly Custom
  High: Low: Average:
Temperature: 94.5 °F 68.4 °F 80.6 °F
Dew Point: 67.3 °F 51.8 °F 61.2 °F
Humidity: 76% 25% 55%
Wind Speed: 10.0mph 0.0mph 2.5mph
Wind Gust: 15.0mph - -
Wind- - East
Pressure: 29.91 in 29.84 in -
Precipitation: 0.00 in    
Historical Graphs
 
 
Tabular Data for June 23, 2012
Time Temperature Dew Point Pressure Wind Wind Speed Wind Gust Humidity Rainfall Rate (Hourly) Conditions
00:00 75.4 °F 67.3 °F 29.86 in NNE 2.0 mph 2.0 mph 76% 0.00 in
00:01 75.4 °F 67.3 °F 29.86 in North 2.0 mph 2.0 mph 76% 0.00 in
00:06 75.3 °F 67.2 °F 29.86 in NNE 3.0 mph 3.0 mph 76% 0.00 in
00:11 75.2 °F 67.1 °F 29.86 in North 2.0 mph 3.0 mph 76% 0.00 in
00:16 75.2 °F 66.7 °F 29.86 in NNE 1.0 mph 2.0 mph 75% 0.00 in
00:21 75.2 °F 66.7 °F 29.86 in NNW 2.0 mph 2.0 mph 75% 0.00 in
00:26 75.3 °F 66.4 °F 29.86 in North 2.0 mph 3.0 mph 74% 0.00 in
00:31 75.4 °F 66.5 °F 29.86 in NNW 1.0 mph 2.0 mph 74% 0.00 in
00:36 74.9 °F 66.4 °F 29.87 in NNW 1.0 mph 1.0 mph 75% 0.00 in
00:41 74.8 °F 66.3 °F 29.87 in North 1.0 mph 2.0 mph 75% 0.00 in
00:46 74.8 °F 66.3 °F 29.87 in North 1.0 mph 1.0 mph 75% 0.00 in
00:51 74.8 °F 66.3 °F 29.87 in North 2.0 mph 2.0 mph 75% 0.00 in
00:56 74.7 °F 66.3 °F 29.86 in NNW 1.0 mph 2.0 mph 75% 0.00 in
01:01 74.6 °F 66.2 °F 29.87 in North 2.0 mph 3.0 mph 75% 0.00 in
01:06 74.4 °F 66.0 °F 29.87 in North 1.0 mph 2.0 mph 75% 0.00 in
01:11 74.3 °F 66.2 °F 29.86 in NNW 1.0 mph 2.0 mph 76% 0.00 in
01:16 74.3 °F 66.2 °F 29.87 in North 2.0 mph 2.0 mph 76% 0.00 in
01:21 74.2 °F 66.2 °F 29.86 in North 1.0 mph 3.0 mph 76% 0.00 in
01:26 74.1 °F 66.1 °F 29.86 in NNE 1.0 mph 2.0 mph 76% 0.00 in
01:31 74.1 °F 65.7 °F 29.86 in NNE 1.0 mph 3.0 mph 75% 0.00 in
01:36 74.0 °F 65.6 °F 29.86 in NNW 1.0 mph 2.0 mph 75% 0.00 in
01:41 73.9 °F 65.9 °F 29.86 in North 1.0 mph 3.0 mph 76% 0.00 in
01:46 73.8 °F 65.8 °F 29.86 in NW 1.0 mph 3.0 mph 76% 0.00 in
01:51 73.8 °F 65.8 °F 29.86 in NNW 2.0 mph 4.0 mph 76% 0.00 in
01:56 73.7 °F 65.3 °F 29.87 in North 2.0 mph 4.0 mph 75% 0.00 in
02:01 73.6 °F 65.2 °F 29.87 in North 1.0 mph 4.0 mph 75% 0.00 in
02:07 73.5 °F 65.1 °F 29.87 in North 1.0 mph 4.0 mph 75% 0.00 in
02:12 73.5 °F 65.1 °F 29.87 in NE 1.0 mph 2.0 mph 75% 0.00 in
02:17 73.5 °F 64.7 °F 29.87 in North 3.0 mph 4.0 mph 74% 0.00 in
02:22 73.4 °F 64.6 °F 29.87 in NE 3.0 mph 3.0 mph 74% 0.00 in
02:27 73.3 °F 64.1 °F 29.87 in NNW 1.0 mph 3.0 mph 73% 0.00 in
02:32 73.2 °F 64.0 °F 29.87 in NNE 1.0 mph 2.0 mph 73% 0.00 in
02:37 73.2 °F 64.0 °F 29.87 in NE 3.0 mph 3.0 mph 73% 0.00 in
02:42 73.1 °F 63.9 °F 29.87 in NNE 2.0 mph 2.0 mph 73% 0.00 in
02:47 73.0 °F 63.5 °F 29.87 in NE 3.0 mph 3.0 mph 72% 0.00 in
02:52 72.9 °F 63.3 °F 29.87 in NNE 1.0 mph 3.0 mph 72% 0.00 in
02:57 72.9 °F 63.3 °F 29.87 in NE 2.0 mph 5.0 mph 72% 0.00 in
03:02 72.9 °F 63.3 °F 29.87 in NNE 2.0 mph 4.0 mph 72% 0.00 in
03:07 72.8 °F 63.3 °F 29.86 in NE 2.0 mph 4.0 mph 72% 0.00 in
03:12 72.8 °F 62.9 °F 29.86 in NNE 1.0 mph 5.0 mph 71% 0.00 in
03:17 72.8 °F 62.9 °F 29.86 in NNE 2.0 mph 3.0 mph 71% 0.00 in
03:22 72.7 °F 62.8 °F 29.86 in North 2.0 mph 4.0 mph 71% 0.00 in
03:27 72.5 °F 62.6 °F 29.86 in NNE 2.0 mph 3.0 mph 71% 0.00 in
03:32 72.4 °F 62.5 °F 29.86 in NE 2.0 mph 4.0 mph 71% 0.00 in
03:37 72.3 °F 62.4 °F 29.86 in NNE 1.0 mph 3.0 mph 71% 0.00 in
03:42 72.1 °F 62.2 °F 29.86 in NNE 2.0 mph 4.0 mph 71% 0.00 in
03:47 72.1 °F 62.2 °F 29.85 in NNE 3.0 mph 4.0 mph 71% 0.00 in
03:52 72.3 °F 62.0 °F 29.85 in NE 3.0 mph 4.0 mph 70% 0.00 in
03:57 72.3 °F 62.0 °F 29.85 in NE 2.0 mph 3.0 mph 70% 0.00 in
04:02 72.2 °F 61.9 °F 29.85 in NE 2.0 mph 3.0 mph 70% 0.00 in
04:07 72.1 °F 61.8 °F 29.85 in NNE 1.0 mph 3.0 mph 70% 0.00 in
04:12 71.8 °F 61.5 °F 29.85 in NNE 2.0 mph 2.0 mph 70% 0.00 in
04:17 71.6 °F 61.7 °F 29.85 in NNE 2.0 mph 3.0 mph 71% 0.00 in
04:22 71.5 °F 61.6 °F 29.85 in NE 2.0 mph 3.0 mph 71% 0.00 in
04:27 71.4 °F 61.5 °F 29.85 in NNE 2.0 mph 3.0 mph 71% 0.00 in
04:32 71.2 °F 61.3 °F 29.85 in Calm   2.0 mph 71% 0.00 in
04:37 70.9 °F 61.4 °F 29.85 in NNE 1.0 mph 2.0 mph 72% 0.00 in
04:42 70.7 °F 61.2 °F 29.85 in NNE 1.0 mph 2.0 mph 72% 0.00 in
04:47 70.5 °F 61.4 °F 29.85 in NE 1.0 mph 2.0 mph 73% 0.00 in
04:52 70.5 °F 61.4 °F 29.85 in NNE 1.0 mph 2.0 mph 73% 0.00 in
04:57 70.4 °F 61.3 °F 29.85 in Calm   2.0 mph 73% 0.00 in
05:02 70.5 °F 61.0 °F 29.85 in NNW 2.0 mph 2.0 mph 72% 0.00 in
05:07 70.4 °F 61.0 °F 29.85 in Calm   2.0 mph 72% 0.00 in
05:12 70.3 °F 61.2 °F 29.85 in Calm   2.0 mph 73% 0.00 in
05:17 70.2 °F 61.2 °F 29.85 in NNE 1.0 mph 2.0 mph 73% 0.00 in
05:22 70.1 °F 61.0 °F 29.85 in North 2.0 mph 2.0 mph 73% 0.00 in
05:27 70.2 °F 61.2 °F 29.85 in NNE 1.0 mph 3.0 mph 73% 0.00 in
05:32 70.1 °F 61.0 °F 29.85 in NNE 2.0 mph 2.0 mph 73% 0.00 in
05:37 69.9 °F 60.9 °F 29.85 in NNE 1.0 mph 3.0 mph 73% 0.00 in
05:42 69.7 °F 60.7 °F 29.85 in NNE 1.0 mph 2.0 mph 73% 0.00 in
05:47 69.5 °F 60.9 °F 29.85 in North 1.0 mph 3.0 mph 74% 0.00 in
05:52 69.1 °F 60.8 °F 29.85 in North 2.0 mph 2.0 mph 75% 0.00 in
05:57 68.7 °F 60.8 °F 29.85 in North 2.0 mph 2.0 mph 76% 0.00 in
06:02 68.4 °F 60.5 °F 29.86 in North 2.0 mph 3.0 mph 76% 0.00 in
06:07 68.4 °F 60.5 °F 29.86 in North 2.0 mph 4.0 mph 76% 0.00 in
06:12 68.4 °F 60.5 °F 29.86 in NNE 1.0 mph 2.0 mph 76% 0.00 in
06:17 68.7 °F 60.8 °F 29.86 in NNE 3.0 mph 3.0 mph 76% 0.00 in
06:22 69.0 °F 60.8 °F 29.86 in NNE 2.0 mph 3.0 mph 75% 0.00 in
06:27 69.1 °F 60.5 °F 29.86 in NNE 2.0 mph 4.0 mph 74% 0.00 in
06:33 69.2 °F 60.6 °F 29.86 in NNE 1.0 mph 3.0 mph 74% 0.00 in
06:38 69.0 °F 60.8 °F 29.87 in NNE 2.0 mph 4.0 mph 75% 0.00 in
06:43 69.0 °F 60.8 °F 29.87 in NNE 3.0 mph 3.0 mph 75% 0.00 in
06:48 69.0 °F 60.8 °F 29.87 in NNE 2.0 mph 3.0 mph 75% 0.00 in
06:53 69.0 °F 60.8 °F 29.87 in NE 2.0 mph 3.0 mph 75% 0.00 in
06:58 69.0 °F 60.8 °F 29.87 in NNE 2.0 mph 4.0 mph 75% 0.00 in
07:03 69.2 °F 61.0 °F 29.87 in NE 2.0 mph 3.0 mph 75% 0.00 in
07:08 69.6 °F 61.0 °F 29.87 in NNE 1.0 mph 3.0 mph 74% 0.00 in
07:13 70.0 °F 61.0 °F 29.87 in NNE 1.0 mph 2.0 mph 73% 0.00 in
07:18 70.3 °F 61.2 °F 29.88 in NNE 2.0 mph 3.0 mph 73% 0.00 in
07:23 70.6 °F 61.1 °F 29.88 in NNE 2.0 mph 3.0 mph 72% 0.00 in
07:28 70.8 °F 61.3 °F 29.88 in NNE 1.0 mph 3.0 mph 72% 0.00 in
07:33 71.1 °F 61.6 °F 29.88 in NE 3.0 mph 4.0 mph 72% 0.00 in
07:38 71.2 °F 61.7 °F 29.88 in NE 2.0 mph 4.0 mph 72% 0.00 in
07:43 71.7 °F 61.8 °F 29.88 in NNE 2.0 mph 4.0 mph 71% 0.00 in
07:48 72.0 °F 62.1 °F 29.88 in North 3.0 mph 3.0 mph 71% 0.00 in
07:53 72.2 °F 62.7 °F 29.89 in NNE 4.0 mph 4.0 mph 72% 0.00 in
07:58 72.5 °F 62.6 °F 29.89 in NNE 1.0 mph 4.0 mph 71% 0.00 in
08:03 72.8 °F 62.9 °F 29.89 in NE 2.0 mph 4.0 mph 71% 0.00 in
08:08 73.2 °F 63.2 °F 29.89 in NNW 1.0 mph 3.0 mph 71% 0.00 in
08:13 73.5 °F 63.5 °F 29.89 in NNE 4.0 mph 4.0 mph 71% 0.00 in
08:18 73.7 °F 63.3 °F 29.89 in NNE 2.0 mph 4.0 mph 70% 0.00 in
08:23 74.0 °F 62.8 °F 29.89 in NE 3.0 mph 5.0 mph 68% 0.00 in
08:28 74.3 °F 63.1 °F 29.89 in NE 4.0 mph 6.0 mph 68% 0.00 in
08:33 74.6 °F 62.9 °F 29.89 in NNE 5.0 mph 5.0 mph 67% 0.00 in
08:38 75.0 °F 63.3 °F 29.89 in NE 4.0 mph 5.0 mph 67% 0.00 in
08:43 75.5 °F 63.4 °F 29.89 in NNW 2.0 mph 7.0 mph 66% 0.00 in
08:48 75.7 °F 64.0 °F 29.90 in NNE 3.0 mph 5.0 mph 67% 0.00 in
08:53 76.2 °F 64.0 °F 29.90 in NNE 2.0 mph 6.0 mph 66% 0.00 in
08:58 76.7 °F 63.6 °F 29.90 in NE 4.0 mph 5.0 mph 64% 0.00 in
09:03 77.1 °F 64.4 °F 29.90 in NNE 3.0 mph 6.0 mph 65% 0.00 in
09:08 77.3 °F 63.7 °F 29.90 in NE 5.0 mph 7.0 mph 63% 0.00 in
09:13 77.6 °F 64.5 °F 29.90 in NE 4.0 mph 8.0 mph 64% 0.00 in
09:18 77.8 °F 63.3 °F 29.90 in NE 8.0 mph 10.0 mph 61% 0.00 in
09:23 78.1 °F 63.6 °F 29.90 in NE 5.0 mph 8.0 mph 61% 0.00 in
09:28 78.5 °F 63.5 °F 29.91 in NNE 7.0 mph 10.0 mph 60% 0.00 in
09:33 78.7 °F 63.2 °F 29.90 in NNE 5.0 mph 7.0 mph 59% 0.00 in
09:38 79.2 °F 63.7 °F 29.90 in NNE 4.0 mph 8.0 mph 59% 0.00 in
09:43 79.4 °F 63.8 °F 29.90 in NNE 3.0 mph 7.0 mph 59% 0.00 in
09:48 79.8 °F 64.2 °F 29.90 in ENE 3.0 mph 7.0 mph 59% 0.00 in
09:54 80.1 °F 64.0 °F 29.90 in NE 6.0 mph 7.0 mph 58% 0.00 in
09:59 80.5 °F 63.4 °F 29.91 in NE 7.0 mph 9.0 mph 56% 0.00 in
10:04 80.7 °F 63.0 °F 29.90 in NE 4.0 mph 8.0 mph 55% 0.00 in
10:09 81.2 °F 63.0 °F 29.90 in NE 4.0 mph 10.0 mph 54% 0.00 in
10:14 81.2 °F 63.0 °F 29.90 in NE 4.0 mph 8.0 mph 54% 0.00 in
10:19 81.4 °F 63.2 °F 29.91 in North 6.0 mph 8.0 mph 54% 0.00 in
10:24 81.7 °F 64.5 °F 29.91 in NNE 6.0 mph 7.0 mph 56% 0.00 in
10:29 82.0 °F 64.3 °F 29.91 in East 6.0 mph 10.0 mph 55% 0.00 in
10:34 82.3 °F 62.9 °F 29.91 in NE 8.0 mph 11.0 mph 52% 0.00 in
10:39 82.5 °F 62.6 °F 29.91 in NNE 4.0 mph 8.0 mph 51% 0.00 in
10:44 82.9 °F 61.8 °F 29.91 in NE 6.0 mph 9.0 mph 49% 0.00 in
10:49 83.1 °F 63.1 °F 29.90 in NE 3.0 mph 10.0 mph 51% 0.00 in
10:54 83.5 °F 62.9 °F 29.90 in NE 10.0 mph 10.0 mph 50% 0.00 in
10:59 83.5 °F 62.3 °F 29.90 in NE 6.0 mph 10.0 mph 49% 0.00 in
11:04 83.9 °F 62.1 °F 29.90 in NNE 7.0 mph 7.0 mph 48% 0.00 in
11:09 84.0 °F 61.6 °F 29.90 in NE 5.0 mph 15.0 mph 47% 0.00 in
11:14 84.3 °F 62.5 °F 29.90 in NE 3.0 mph 8.0 mph 48% 0.00 in
11:19 84.9 °F 63.6 °F 29.91 in NE 6.0 mph 8.0 mph 49% 0.00 in
11:24 85.0 °F 65.4 °F 29.91 in NE 5.0 mph 8.0 mph 52% 0.00 in
11:29 84.9 °F 61.8 °F 29.91 in NE 5.0 mph 8.0 mph 46% 0.00 in
11:34 84.7 °F 62.3 °F 29.91 in ESE 4.0 mph 9.0 mph 47% 0.00 in
11:39 84.9 °F 64.2 °F 29.90 in ENE 7.0 mph 8.0 mph 50% 0.00 in
11:44 85.0 °F 61.9 °F 29.90 in ENE 4.0 mph 8.0 mph 46% 0.00 in
11:49 85.4 °F 62.9 °F 29.91 in NNE 3.0 mph 9.0 mph 47% 0.00 in
11:54 85.7 °F 62.6 °F 29.91 in NNE 5.0 mph 9.0 mph 46% 0.00 in
11:59 86.0 °F 64.0 °F 29.91 in North 4.0 mph 6.0 mph 48% 0.00 in
12:04 86.0 °F 62.2 °F 29.91 in ENE 5.0 mph 8.0 mph 45% 0.00 in
12:09 85.9 °F 64.0 °F 29.91 in NE 1.0 mph 6.0 mph 48% 0.00 in
12:14 86.2 °F 62.4 °F 29.90 in East 2.0 mph 5.0 mph 45% 0.00 in
12:19 86.3 °F 61.2 °F 29.90 in East 2.0 mph 8.0 mph 43% 0.00 in
12:24 86.3 °F 62.5 °F 29.90 in ENE 4.0 mph 7.0 mph 45% 0.00 in
12:29 86.3 °F 61.8 °F 29.91 in ENE 4.0 mph 8.0 mph 44% 0.00 in
12:34 86.6 °F 61.5 °F 29.91 in NE 5.0 mph 8.0 mph 43% 0.00 in
12:39 87.0 °F 63.7 °F 29.91 in NE 5.0 mph 5.0 mph 46% 0.00 in
12:44 87.3 °F 63.4 °F 29.91 in NW 2.0 mph 4.0 mph 45% 0.00 in
12:49 87.8 °F 62.5 °F 29.91 in NE 4.0 mph 6.0 mph 43% 0.00 in
12:54 87.7 °F 62.5 °F 29.91 in North 4.0 mph 9.0 mph 43% 0.00 in
12:59 87.8 °F 62.5 °F 29.91 in East 5.0 mph 6.0 mph 43% 0.00 in
13:04 87.9 °F 61.3 °F 29.91 in NE 5.0 mph 7.0 mph 41% 0.00 in
13:09 88.1 °F 63.5 °F 29.90 in NE 5.0 mph 5.0 mph 44% 0.00 in
13:14 88.1 °F 62.1 °F 29.90 in WNW 2.0 mph 4.0 mph 42% 0.00 in
13:19 88.6 °F 60.5 °F 29.90 in NNW 3.0 mph 7.0 mph 39% 0.00 in
13:24 88.4 °F 60.3 °F 29.90 in ENE 1.0 mph 9.0 mph 39% 0.00 in
13:29 88.4 °F 59.6 °F 29.90 in NE 7.0 mph 9.0 mph 38% 0.00 in
13:34 88.2 °F 59.4 °F 29.89 in East 3.0 mph 9.0 mph 38% 0.00 in
13:39 88.3 °F 60.2 °F 29.90 in NE 4.0 mph 8.0 mph 39% 0.00 in
13:44 88.5 °F 59.7 °F 29.89 in NE 2.0 mph 5.0 mph 38% 0.00 in
13:50 88.7 °F 61.3 °F 29.89 in NW 1.0 mph 6.0 mph 40% 0.00 in
13:55 89.5 °F 60.6 °F 29.89 in NE 3.0 mph 7.0 mph 38% 0.00 in
14:00 88.9 °F 61.5 °F 29.89 in NE 2.0 mph 7.0 mph 40% 0.00 in
14:05 88.9 °F 59.3 °F 29.89 in NNE 4.0 mph 6.0 mph 37% 0.00 in
14:10 89.0 °F 60.1 °F 29.89 in North 7.0 mph 12.0 mph 38% 0.00 in
14:15 89.0 °F 60.1 °F 29.89 in NW 2.0 mph 6.0 mph 38% 0.00 in
14:20 89.6 °F 60.7 °F 29.89 in NNE 5.0 mph 7.0 mph 38% 0.00 in
14:25 89.9 °F 61.7 °F 29.89 in ENE 4.0 mph 7.0 mph 39% 0.00 in
14:30 89.7 °F 59.2 °F 29.89 in East 3.0 mph 6.0 mph 36% 0.00 in
14:35 90.0 °F 59.5 °F 29.89 in NNE 4.0 mph 7.0 mph 36% 0.00 in
14:40 90.2 °F 61.2 °F 29.88 in West 1.0 mph 4.0 mph 38% 0.00 in
14:45 90.7 °F 60.9 °F 29.88 in NE 2.0 mph 9.0 mph 37% 0.00 in
14:50 90.4 °F 60.6 °F 29.88 in NE 3.0 mph 7.0 mph 37% 0.00 in
14:55 90.3 °F 60.5 °F 29.88 in East 6.0 mph 9.0 mph 37% 0.00 in
15:00 90.1 °F 59.6 °F 29.88 in NNW 7.0 mph 7.0 mph 36% 0.00 in
15:05 90.3 °F 59.8 °F 29.88 in NE 6.0 mph 9.0 mph 36% 0.00 in
15:10 90.2 °F 60.4 °F 29.88 in NNE 3.0 mph 6.0 mph 37% 0.00 in
15:15 90.2 °F 59.7 °F 29.87 in NNE 6.0 mph 8.0 mph 36% 0.00 in
15:20 90.2 °F 60.4 °F 29.88 in NNW 3.0 mph 4.0 mph 37% 0.00 in
15:25 90.6 °F 57.6 °F 29.88 in NE 2.0 mph 6.0 mph 33% 0.00 in
15:30 90.9 °F 61.0 °F 29.87 in WSW 4.0 mph 4.0 mph 37% 0.00 in
15:35 91.2 °F 59.8 °F 29.87 in NW 2.0 mph 6.0 mph 35% 0.00 in
15:40 91.4 °F 58.3 °F 29.87 in NNE 7.0 mph 7.0 mph 33% 0.00 in
15:45 91.2 °F 57.2 °F 29.87 in NNW 3.0 mph 7.0 mph 32% 0.00 in
15:50 91.7 °F 57.7 °F 29.87 in ENE 3.0 mph 5.0 mph 32% 0.00 in
15:55 91.6 °F 56.7 °F 29.87 in North 6.0 mph 8.0 mph 31% 0.00 in
16:00 91.4 °F 58.3 °F 29.87 in North 8.0 mph 8.0 mph 33% 0.00 in
16:05 91.5 °F 58.4 °F 29.87 in NW 4.0 mph 8.0 mph 33% 0.00 in
16:10 91.7 °F 58.5 °F 29.87 in NNE 1.0 mph 6.0 mph 33% 0.00 in
16:15 91.8 °F 58.6 °F 29.87 in North 2.0 mph 9.0 mph 33% 0.00 in
16:20 91.7 °F 56.8 °F 29.87 in North 4.0 mph 8.0 mph 31% 0.00 in
16:25 91.7 °F 59.4 °F 29.87 in NNE 8.0 mph 10.0 mph 34% 0.00 in
16:30 91.5 °F 57.5 °F 29.87 in NE 5.0 mph 6.0 mph 32% 0.00 in
16:35 91.7 °F 55.9 °F 29.87 in NE 2.0 mph 5.0 mph 30% 0.00 in
16:40 91.9 °F 55.1 °F 29.86 in NW 6.0 mph 6.0 mph 29% 0.00 in
16:46 92.0 °F 53.3 °F 29.86 in NE 5.0 mph 8.0 mph 27% 0.00 in
16:51 92.3 °F 52.5 °F 29.86 in ENE 2.0 mph 5.0 mph 26% 0.00 in
16:56 92.0 °F 53.3 °F 29.86 in NNW 2.0 mph 6.0 mph 27% 0.00 in
17:01 92.0 °F 53.3 °F 29.86 in SW 1.0 mph 3.0 mph 27% 0.00 in
17:06 92.7 °F 53.9 °F 29.86 in East 2.0 mph 8.0 mph 27% 0.00 in
17:11 92.7 °F 51.8 °F 29.86 in NE 7.0 mph 10.0 mph 25% 0.00 in
17:16 92.2 °F 55.4 °F 29.86 in NNE 4.0 mph 4.0 mph 29% 0.00 in
17:21 92.2 °F 53.4 °F 29.86 in NE 2.0 mph 5.0 mph 27% 0.00 in
17:26 92.3 °F 53.5 °F 29.86 in ESE 3.0 mph 5.0 mph 27% 0.00 in
17:31 92.4 °F 52.6 °F 29.86 in WNW 2.0 mph 5.0 mph 26% 0.00 in
17:36 92.8 °F 54.9 °F 29.86 in East 2.0 mph 4.0 mph 28% 0.00 in
17:41 92.7 °F 54.8 °F 29.86 in WNW 2.0 mph 4.0 mph 28% 0.00 in
17:46 93.4 °F 59.2 °F 29.86 in NNE 3.0 mph 4.0 mph 32% 0.00 in
17:51 93.5 °F 57.5 °F 29.86 in ESE 4.0 mph 6.0 mph 30% 0.00 in
17:56 92.8 °F 55.9 °F 29.86 in Calm   7.0 mph 29% 0.00 in
18:01 93.2 °F 55.3 °F 29.86 in ESE 4.0 mph 5.0 mph 28% 0.00 in
18:06 92.8 °F 54.9 °F 29.86 in NE 2.0 mph 5.0 mph 28% 0.00 in
18:11 93.1 °F 56.2 °F 29.86 in NNW 1.0 mph 3.0 mph 29% 0.00 in
18:16 93.5 °F 55.5 °F 29.86 in NW 2.0 mph 3.0 mph 28% 0.00 in
18:21 93.9 °F 55.9 °F 29.86 in Calm   2.0 mph 28% 0.00 in
18:26 94.5 °F 56.4 °F 29.86 in NNE 2.0 mph 4.0 mph 28% 0.00 in
18:31 93.6 °F 55.6 °F 29.86 in NNW 3.0 mph 4.0 mph 28% 0.00 in
18:36 93.0 °F 57.0 °F 29.86 in North 2.0 mph 5.0 mph 30% 0.00 in
18:41 92.7 °F 53.9 °F 29.85 in East 3.0 mph 6.0 mph 27% 0.00 in
18:46 92.5 °F 54.7 °F 29.85 in NE 3.0 mph 3.0 mph 28% 0.00 in
18:51 92.6 °F 54.8 °F 29.85 in North 3.0 mph 5.0 mph 28% 0.00 in
18:56 92.4 °F 54.6 °F 29.85 in NNE 3.0 mph 4.0 mph 28% 0.00 in
19:01 92.2 °F 56.3 °F 29.85 in NE 2.0 mph 4.0 mph 30% 0.00 in
19:06 92.0 °F 56.2 °F 29.85 in NE 1.0 mph 4.0 mph 30% 0.00 in
19:11 92.0 °F 57.1 °F 29.85 in NE 1.0 mph 2.0 mph 31% 0.00 in
19:16 91.9 °F 56.1 °F 29.85 in North 1.0 mph 3.0 mph 30% 0.00 in
19:21 91.7 °F 55.9 °F 29.85 in North 2.0 mph 3.0 mph 30% 0.00 in
19:26 91.6 °F 58.5 °F 29.85 in NNW 2.0 mph 2.0 mph 33% 0.00 in
19:31 91.3 °F 59.0 °F 29.86 in Calm   2.0 mph 34% 0.00 in
19:36 91.1 °F 58.8 °F 29.86 in Calm   2.0 mph 34% 0.00 in
19:41 90.7 °F 60.1 °F 29.86 in North 1.0 mph 1.0 mph 36% 0.00 in
19:46 90.2 °F 61.9 °F 29.86 in Calm   1.0 mph 39% 0.00 in
19:51 89.5 °F 61.3 °F 29.85 in Calm   1.0 mph 39% 0.00 in
19:56 88.8 °F 60.7 °F 29.85 in Calm   1.0 mph 39% 0.00 in
20:01 88.3 °F 61.6 °F 29.85 in Calm     41% 0.00 in
20:06 88.1 °F 61.5 °F 29.85 in Calm   1.0 mph 41% 0.00 in
20:11 88.3 °F 64.9 °F 29.84 in North 1.0 mph 1.0 mph 46% 0.00 in
20:17 87.2 °F 65.7 °F 29.84 in North 1.0 mph 1.0 mph 49% 0.00 in
20:21 86.2 °F 61.1 °F 29.84 in Calm   1.0 mph 43% 0.00 in
20:27 86.6 °F 63.4 °F 29.84 in Calm     46% 0.00 in
20:32 86.9 °F 64.3 °F 29.84 in North 1.0 mph 1.0 mph 47% 0.00 in
20:37 86.1 °F 64.7 °F 29.84 in Calm     49% 0.00 in
20:42 85.6 °F 65.4 °F 29.84 in NNW 1.0 mph 2.0 mph 51% 0.00 in
20:47 84.5 °F 65.5 °F 29.84 in Calm   2.0 mph 53% 0.00 in
20:52 83.6 °F 65.7 °F 29.84 in Calm     55% 0.00 in
20:57 82.7 °F 64.4 °F 29.84 in Calm     54% 0.00 in
21:02 81.6 °F 65.4 °F 29.85 in Calm   1.0 mph 58% 0.00 in
21:07 80.3 °F 65.2 °F 29.85 in NNW 2.0 mph 2.0 mph 60% 0.00 in
21:12 78.8 °F 63.3 °F 29.86 in Calm   1.0 mph 59% 0.00 in
21:17 78.5 °F 63.5 °F 29.86 in Calm   1.0 mph 60% 0.00 in
21:22 78.4 °F 63.4 °F 29.86 in Calm     60% 0.00 in
21:27 78.0 °F 62.5 °F 29.86 in Calm     59% 0.00 in
21:32 77.6 °F 61.2 °F 29.86 in NNW 1.0 mph 1.0 mph 57% 0.00 in
21:37 77.6 °F 61.2 °F 29.86 in NNW 1.0 mph 1.0 mph 57% 0.00 in
21:42 77.6 °F 60.2 °F 29.86 in Calm     55% 0.00 in
21:47 77.5 °F 59.0 °F 29.86 in Calm     53% 0.00 in
21:52 77.3 °F 59.4 °F 29.86 in Calm     54% 0.00 in
21:57 76.6 °F 59.2 °F 29.86 in Calm     55% 0.00 in
22:02 76.2 °F 60.4 °F 29.87 in Calm   1.0 mph 58% 0.00 in
22:07 75.4 °F 60.6 °F 29.87 in NNW 1.0 mph 1.0 mph 60% 0.00 in
22:12 74.6 °F 61.6 °F 29.88 in Calm   1.0 mph 64% 0.00 in
22:17 74.4 °F 60.1 °F 29.88 in Calm   1.0 mph 61% 0.00 in
22:22 74.8 °F 60.9 °F 29.88 in Calm   1.0 mph 62% 0.00 in
22:27 74.4 °F 60.1 °F 29.88 in Calm     61% 0.00 in
22:32 73.9 °F 59.6 °F 29.88 in Calm     61% 0.00 in
22:37 73.2 °F 59.0 °F 29.88 in Calm     61% 0.00 in
22:42 74.0 °F 58.8 °F 29.88 in NNW 1.0 mph 1.0 mph 59% 0.00 in
22:47 75.4 °F 59.1 °F 29.88 in Calm   1.0 mph 57% 0.00 in
22:52 75.5 °F 58.7 °F 29.89 in Calm   1.0 mph 56% 0.00 in
22:57 75.1 °F 58.8 °F 29.89 in Calm   1.0 mph 57% 0.00 in
23:02 74.9 °F 58.7 °F 29.89 in Calm   1.0 mph 57% 0.00 in
23:07 75.3 °F 58.5 °F 29.89 in NNE 1.0 mph 1.0 mph 56% 0.00 in
23:12 75.5 °F 58.7 °F 29.89 in NNE 1.0 mph 1.0 mph 56% 0.00 in
23:17 75.5 °F 58.2 °F 29.89 in NE 1.0 mph 2.0 mph 55% 0.00 in
23:22 75.8 °F 58.5 °F 29.89 in NNE 2.0 mph 2.0 mph 55% 0.00 in
23:27 76.4 °F 58.5 °F 29.89 in NNE 2.0 mph 3.0 mph 54% 0.00 in
23:32 76.8 °F 58.4 °F 29.89 in NE 2.0 mph 3.0 mph 53% 0.00 in
23:37 76.7 °F 58.3 °F 29.89 in NNE 2.0 mph 4.0 mph 53% 0.00 in
23:42 76.7 °F 58.3 °F 29.89 in NNE 2.0 mph 3.0 mph 53% 0.00 in
23:48 76.8 °F 58.4 °F 29.89 in NNE 2.0 mph 4.0 mph 53% 0.00 in
23:53 76.8 °F 57.9 °F 29.89 in NE 4.0 mph 4.0 mph 52% 0.00 in
23:58 76.8 °F 57.9 °F 29.89 in NE 3.0 mph 3.0 mph 52% 0.00 in
Compliments of Weather Underground